| time (UTC) | temp F | wind direction | speed MPH | gust MPH | rain 1hr in | rain 24hr in | rain mn in | humidity % | barometer mb |
| 20260510032028 | 50 | 74 | 0.0 | 2.0 | 0.00 | 0.16 | 0.16 | 97 | 1009.5 |
| 20260510031523 | 50 | 73 | 1.0 | 2.0 | 0.00 | 0.16 | 0.16 | 96 | 1009.5 |
| 20260510031021 | 49 | 82 | 0.0 | 0.0 | 0.00 | 0.16 | 0.16 | 95 | 1009.6 |
| 20260510030529 | 50 | 82 | 0.0 | 1.0 | 0.00 | 0.16 | 0.16 | 95 | 1009.6 |
| 20260510030020 | 51 | 82 | 0.0 | 0.0 | 0.00 | 0.16 | 0.16 | 96 | 1009.5 |
| 20260510025520 | 51 | 82 | 0.0 | 0.0 | 0.00 | 0.16 | 0.16 | 96 | 1009.5 |
| 20260510025023 | 51 | 82 | 0.0 | 0.0 | 0.00 | 0.16 | 0.16 | 96 | 1009.4 |
| 20260510024519 | 51 | 82 | 0.0 | 1.0 | 0.00 | 0.16 | 0.16 | 96 | 1009.5 |
| 20260510024017 | 51 | 82 | 0.0 | 2.0 | 0.00 | 0.16 | 0.16 | 95 | 1009.4 |
| 20260510023519 | 51 | 94 | 0.0 | 2.0 | 0.00 | 0.16 | 0.16 | 95 | 1009.4 |
| 20260510023016 | 51 | 61 | 0.0 | 1.0 | 0.00 | 0.16 | 0.16 | 95 | 1009.4 |
| 20260510022517 | 52 | 61 | 0.0 | 1.0 | 0.00 | 0.16 | 0.16 | 94 | 1009.3 |
| 20260510022015 | 52 | 96 | 0.0 | 1.0 | 0.00 | 0.16 | 0.16 | 95 | 1009.3 |
| 20260510021514 | 52 | 96 | 0.0 | 1.0 | 0.00 | 0.16 | 0.16 | 95 | 1009.2 |
| 20260510021013 | 52 | 101 | 0.0 | 0.0 | 0.00 | 0.16 | 0.16 | 94 | 1009.2 |
| 20260510020513 | 52 | 101 | 0.0 | 0.0 | 0.00 | 0.16 | 0.16 | 93 | 1009.1 |
| 20260510020020 | 52 | 101 | 0.0 | 1.0 | 0.00 | 0.16 | 0.16 | 92 | 1009.0 |
| 20260510015514 | 53 | 101 | 0.0 | 1.0 | 0.00 | 0.16 | 0.16 | 92 | 1008.9 |
| 20260510015014 | 53 | 72 | 0.0 | 1.0 | 0.00 | 0.16 | 0.16 | 92 | 1008.9 |
| 20260510014510 | 54 | 72 | 0.0 | 1.0 | 0.00 | 0.16 | 0.16 | 92 | 1008.8 |
| 20260510014010 | 54 | 72 | 0.0 | 1.0 | 0.00 | 0.16 | 0.16 | 93 | 1008.8 |
| 20260510013609 | 53 | 89 | 0.0 | 1.0 | 0.00 | 0.16 | 0.16 | 92 | 1008.7 |
| 20260510013008 | 54 | 89 | 0.0 | 1.0 | 0.00 | 0.16 | 0.16 | 90 | 1008.7 |
| 20260510012506 | 55 | 64 | 0.0 | 2.0 | 0.00 | 0.16 | 0.16 | 90 | 1008.8 |
| 20260510012006 | 55 | 64 | 1.0 | 2.0 | 0.00 | 0.16 | 0.16 | 91 | 1008.7 |
| 20260510011506 | 54 | 82 | 0.0 | 1.0 | 0.00 | 0.16 | 0.16 | 90 | 1008.7 |
| 20260510011005 | 55 | 82 | 0.0 | 1.0 | 0.00 | 0.16 | 0.16 | 88 | 1008.6 |
| 20260510010504 | 56 | 82 | 0.0 | 1.0 | 0.00 | 0.16 | 0.16 | 88 | 1008.6 |
| 20260510010003 | 56 | 82 | 0.0 | 1.0 | 0.00 | 0.16 | 0.16 | 88 | 1008.5 |
| 20260510005503 | 56 | 89 | 0.0 | 1.0 | 0.00 | 0.16 | 0.16 | 88 | 1008.5 |
| 20260510005002 | 56 | 90 | 0.0 | 0.0 | 0.00 | 0.16 | 0.16 | 89 | 1008.4 |
| 20260510004501 | 56 | 90 | 0.0 | 0.0 | 0.00 | 0.16 | 0.16 | 88 | 1008.4 |
| 20260510004001 | 56 | 90 | 0.0 | 1.0 | 0.00 | 0.16 | 0.16 | 88 | 1008.4 |
| 20260510003600 | 56 | 90 | 0.0 | 2.0 | 0.00 | 0.16 | 0.16 | 87 | 1008.4 |
| 20260510003104 | 57 | 91 | 0.0 | 3.0 | 0.00 | 0.16 | 0.16 | 87 | 1008.2 |
| 20260510002601 | 57 | 80 | 1.0 | 3.0 | 0.00 | 0.16 | 0.16 | 87 | 1008.2 |
| 20260510002059 | 57 | 79 | 1.0 | 3.0 | 0.00 | 0.16 | 0.16 | 86 | 1008.1 |
| 20260510001558 | 57 | 64 | 1.0 | 2.0 | 0.00 | 0.16 | 0.16 | 86 | 1008.0 |
| 20260510001057 | 57 | 67 | 0.0 | 2.0 | 0.00 | 0.16 | 0.16 | 86 | 1008.1 |
| 20260510000556 | 57 | 81 | 0.0 | 2.0 | 0.00 | 0.16 | 0.16 | 86 | 1008.0 |
| 20260510000100 | 57 | 78 | 0.0 | 2.0 | 0.00 | 0.16 | 0.16 | 85 | 1008.1 |
| 20260509235555 | 58 | 101 | 0.0 | 2.0 | 0.00 | 0.16 | 0.16 | 85 | 1008.0 |
| 20260509235054 | 58 | 101 | 0.0 | 2.0 | 0.00 | 0.16 | 0.16 | 85 | 1007.9 |
| 20260509234558 | 58 | 88 | 1.0 | 4.0 | 0.00 | 0.16 | 0.16 | 85 | 1007.8 |
| 20260509234052 | 59 | 98 | 1.0 | 4.0 | 0.00 | 0.16 | 0.16 | 84 | 1007.8 |
| 20260509233651 | 59 | 84 | 0.0 | 3.0 | 0.00 | 0.16 | 0.16 | 83 | 1007.9 |
| 20260509233059 | 60 | 96 | 1.0 | 3.0 | 0.00 | 0.16 | 0.16 | 81 | 1007.8 |
| 20260509232550 | 61 | 94 | 0.0 | 1.0 | 0.00 | 0.16 | 0.16 | 79 | 1007.8 |
| 20260509232049 | 61 | 104 | 0.0 | 1.0 | 0.00 | 0.16 | 0.16 | 79 | 1007.7 |
| 20260509231552 | 61 | 102 | 0.0 | 1.0 | 0.00 | 0.16 | 0.16 | 79 | 1007.7 |
| 20260509231049 | 62 | 102 | 0.0 | 1.0 | 0.00 | 0.16 | 0.16 | 78 | 1007.8 |
| 20260509230550 | 62 | 142 | 0.0 | 1.0 | 0.00 | 0.16 | 0.16 | 77 | 1007.9 |
| 20260509230147 | 62 | 134 | 0.0 | 1.0 | 0.00 | 0.16 | 0.16 | 76 | 1007.9 |
| 20260509225548 | 63 | 166 | 0.0 | 1.0 | 0.00 | 0.16 | 0.16 | 75 | 1007.8 |
| 20260509225147 | 63 | 109 | 0.0 | 1.0 | 0.00 | 0.16 | 0.16 | 75 | 1007.9 |
| 20260509224544 | 63 | 110 | 0.0 | 2.0 | 0.00 | 0.16 | 0.16 | 74 | 1007.9 |
| 20260509224143 | 62 | 109 | 0.0 | 2.0 | 0.00 | 0.16 | 0.16 | 75 | 1007.9 |
| 20260509223543 | 62 | 124 | 0.0 | 1.0 | 0.00 | 0.16 | 0.16 | 76 | 1007.8 |
| 20260509223046 | 62 | 124 | 0.0 | 4.0 | 0.00 | 0.16 | 0.16 | 75 | 1007.8 |
| 20260509222540 | 62 | 98 | 0.0 | 4.0 | 0.00 | 0.16 | 0.16 | 77 | 1007.8 |
| 20260509222039 | 63 | 98 | 0.0 | 3.0 | 0.00 | 0.16 | 0.16 | 75 | 1007.8 |
| 20260509221538 | 63 | 85 | 0.0 | 2.0 | 0.00 | 0.16 | 0.16 | 75 | 1007.8 |
| 20260509221038 | 63 | 225 | 0.0 | 1.0 | 0.00 | 0.16 | 0.16 | 76 | 1007.8 |
| 20260509220535 | 63 | 148 | 0.0 | 3.0 | 0.00 | 0.16 | 0.16 | 77 | 1007.8 |
| 20260509220035 | 63 | 102 | 1.0 | 3.0 | 0.00 | 0.16 | 0.16 | 75 | 1007.8 |
| 20260509215536 | 62 | 249 | 0.0 | 1.0 | 0.00 | 0.16 | 0.16 | 77 | 1008.0 |
| 20260509215033 | 62 | 315 | 0.0 | 2.0 | 0.00 | 0.16 | 0.16 | 78 | 1008.0 |
| 20260509214532 | 61 | 58 | 0.0 | 2.0 | 0.00 | 0.16 | 0.16 | 79 | 1008.1 |
| 20260509214030 | 61 | 93 | 0.0 | 1.0 | 0.00 | 0.16 | 0.16 | 80 | 1008.2 |
| 20260509213530 | 61 | 76 | 0.0 | 1.0 | 0.00 | 0.16 | 0.16 | 80 | 1008.3 |
| 20260509213032 | 60 | 307 | 0.0 | 0.0 | 0.00 | 0.16 | 0.16 | 82 | 1008.4 |
| 20260509212532 | 60 | 267 | 0.0 | 1.0 | 0.00 | 0.16 | 0.16 | 82 | 1008.5 |
| 20260509212031 | 60 | 267 | 0.0 | 2.0 | 0.00 | 0.16 | 0.16 | 81 | 1008.6 |
| 20260509211527 | 60 | 330 | 0.0 | 2.0 | 0.00 | 0.16 | 0.16 | 81 | 1008.6 |
| 20260509211027 | 60 | 309 | 0.0 | 0.0 | 0.00 | 0.16 | 0.16 | 82 | 1008.6 |
| 20260509210527 | 60 | 316 | 0.0 | 2.0 | 0.00 | 0.16 | 0.16 | 82 | 1008.6 |
| 20260509210026 | 60 | 316 | 0.0 | 2.0 | 0.00 | 0.16 | 0.16 | 81 | 1008.5 |
| 20260509205527 | 60 | 1 | 0.0 | 2.0 | 0.00 | 0.16 | 0.16 | 83 | 1008.5 |
| 20260509205027 | 59 | 30 | 0.0 | 2.0 | 0.00 | 0.16 | 0.16 | 82 | 1008.3 |
| 20260509204524 | 59 | 43 | 1.0 | 2.0 | 0.00 | 0.16 | 0.16 | 82 | 1008.2 |
| 20260509204022 | 60 | 46 | 0.0 | 2.0 | 0.00 | 0.16 | 0.16 | 82 | 1008.3 |
| 20260509203521 | 59 | 272 | 0.0 | 0.0 | 0.00 | 0.16 | 0.16 | 82 | 1008.4 |
| 20260509203020 | 59 | 272 | 0.0 | 0.0 | 0.00 | 0.16 | 0.16 | 81 | 1008.5 |
| 20260509202520 | 59 | 272 | 0.0 | 0.0 | 0.00 | 0.16 | 0.16 | 81 | 1008.6 |
| 20260509202017 | 60 | 278 | 0.0 | 2.0 | 0.00 | 0.16 | 0.16 | 81 | 1008.5 |
| 20260509201516 | 60 | 257 | 0.0 | 2.0 | 0.00 | 0.16 | 0.16 | 80 | 1008.6 |
| 20260509201014 | 60 | 234 | 0.0 | 2.0 | 0.00 | 0.16 | 0.16 | 81 | 1008.8 |
| 20260509200514 | 60 | 266 | 0.0 | 2.0 | 0.00 | 0.16 | 0.16 | 81 | 1008.8 |
| 20260509200013 | 60 | 231 | 1.0 | 3.0 | 0.00 | 0.16 | 0.16 | 81 | 1008.9 |
| 20260509195516 | 61 | 227 | 0.0 | 5.0 | 0.00 | 0.16 | 0.16 | 80 | 1008.9 |
| 20260509195012 | 62 | 253 | 1.0 | 5.0 | 0.00 | 0.16 | 0.16 | 79 | 1008.9 |
| 20260509194514 | 62 | 219 | 1.0 | 3.0 | 0.00 | 0.16 | 0.16 | 80 | 1008.9 |
| 20260509194009 | 62 | 252 | 0.0 | 1.0 | 0.00 | 0.16 | 0.16 | 83 | 1008.9 |
| 20260509193513 | 61 | 20 | 0.0 | 0.0 | 0.00 | 0.16 | 0.16 | 82 | 1009.0 |
| 20260509193005 | 60 | 210 | 0.0 | 1.0 | 0.00 | 0.16 | 0.16 | 83 | 1009.1 |
| 20260509192503 | 60 | 131 | 0.0 | 3.0 | 0.00 | 0.16 | 0.16 | 84 | 1009.1 |
| 20260509192003 | 60 | 146 | 0.0 | 3.0 | 0.00 | 0.16 | 0.16 | 85 | 1009.2 |
| 20260509191502 | 60 | 84 | 0.0 | 4.0 | 0.01 | 0.16 | 0.16 | 82 | 1009.2 |
| 20260509191001 | 60 | 127 | 0.0 | 4.0 | 0.01 | 0.16 | 0.16 | 83 | 1009.2 |
| 20260509190603 | 60 | 139 | 0.0 | 2.0 | 0.01 | 0.16 | 0.16 | 86 | 1009.3 |
| 20260509190106 | 59 | 112 | 0.0 | 2.0 | 0.01 | 0.16 | 0.16 | 86 | 1009.4 |
| 20260509185556 | 59 | 240 | 0.0 | 5.0 | 0.01 | 0.16 | 0.16 | 89 | 1009.4 |
| 20260509185057 | 58 | 84 | 1.0 | 5.0 | 0.01 | 0.16 | 0.16 | 90 | 1009.4 |
| 20260509184607 | 58 | 146 | 0.0 | 3.0 | 0.01 | 0.16 | 0.16 | 91 | 1009.5 |
| 20260509184054 | 57 | 120 | 0.0 | 4.0 | 0.02 | 0.16 | 0.16 | 93 | 1009.5 |
| 20260509183553 | 56 | 143 | 0.0 | 7.0 | 0.02 | 0.16 | 0.16 | 94 | 1009.6 |
| 20260509183052 | 55 | 134 | 2.0 | 7.0 | 0.02 | 0.16 | 0.16 | 92 | 1009.6 |
| 20260509182552 | 55 | 98 | 3.0 | 5.0 | 0.02 | 0.16 | 0.16 | 92 | 1009.5 |
| 20260509182050 | 55 | 126 | 0.0 | 3.0 | 0.02 | 0.16 | 0.16 | 93 | 1009.8 |
| 20260509181549 | 55 | 122 | 0.0 | 4.0 | 0.02 | 0.15 | 0.15 | 93 | 1009.8 |
| 20260509181050 | 54 | 100 | 2.0 | 4.0 | 0.02 | 0.15 | 0.15 | 92 | 1009.9 |
| 20260509180548 | 54 | 89 | 0.0 | 1.0 | 0.02 | 0.15 | 0.15 | 93 | 1009.9 |
| 20260509180048 | 54 | 84 | 0.0 | 2.0 | 0.02 | 0.15 | 0.15 | 93 | 1010.0 |
| 20260509175547 | 54 | 142 | 0.0 | 2.0 | 0.02 | 0.15 | 0.15 | 93 | 1010.0 |
| 20260509175047 | 54 | 130 | 0.0 | 5.0 | 0.02 | 0.15 | 0.15 | 93 | 1010.0 |
| 20260509174546 | 54 | 127 | 0.0 | 5.0 | 0.02 | 0.15 | 0.15 | 93 | 1010.1 |
| 20260509174045 | 54 | 109 | 1.0 | 3.0 | 0.01 | 0.14 | 0.14 | 92 | 1010.0 |
| 20260509173544 | 54 | 100 | 0.0 | 3.0 | 0.01 | 0.14 | 0.14 | 91 | 1010.0 |
| 20260509173049 | 54 | 82 | 0.0 | 0.0 | 0.01 | 0.14 | 0.14 | 90 | 1010.1 |
| 20260509172541 | 54 | 76 | 0.0 | 0.0 | 0.01 | 0.14 | 0.14 | 90 | 1010.1 |
| 20260509172041 | 54 | 219 | 0.0 | 0.0 | 0.02 | 0.14 | 0.14 | 89 | 1010.0 |
| 20260509171546 | 54 | 219 | 0.0 | 0.0 | 0.01 | 0.13 | 0.13 | 89 | 1010.0 |
| 20260509171040 | 54 | 219 | 0.0 | 1.0 | 0.01 | 0.13 | 0.13 | 90 | 1009.9 |
| 20260509170639 | 54 | 219 | 0.0 | 1.0 | 0.02 | 0.13 | 0.13 | 91 | 1010.0 |
| 20260509170038 | 54 | 219 | 0.0 | 0.0 | 0.03 | 0.13 | 0.13 | 90 | 1010.1 |
| 20260509165538 | 54 | 219 | 0.0 | 0.0 | 0.04 | 0.13 | 0.13 | 91 | 1010.1 |
| 20260509165037 | 54 | 219 | 0.0 | 1.0 | 0.06 | 0.13 | 0.13 | 90 | 1010.1 |
| 20260509164537 | 54 | 219 | 0.0 | 1.0 | 0.08 | 0.13 | 0.13 | 91 | 1010.1 |
| 20260509164036 | 54 | 219 | 0.0 | 1.0 | 0.09 | 0.13 | 0.13 | 92 | 1010.1 |
| 20260509163534 | 53 | 214 | 0.0 | 1.0 | 0.10 | 0.13 | 0.13 | 91 | 1010.0 |
| 20260509163034 | 53 | 271 | 0.0 | 1.0 | 0.10 | 0.13 | 0.13 | 91 | 1009.8 |
| 20260509162533 | 53 | 306 | 0.0 | 1.0 | 0.11 | 0.13 | 0.13 | 92 | 1009.9 |
| 20260509162035 | 53 | 302 | 0.0 | 1.0 | 0.11 | 0.12 | 0.12 | 92 | 1009.9 |
| 20260509161534 | 53 | 4 | 0.0 | 1.0 | 0.11 | 0.12 | 0.12 | 91 | 1009.9 |
| 20260509161033 | 53 | 4 | 0.0 | 0.0 | 0.11 | 0.12 | 0.12 | 91 | 1009.9 |
| 20260509160529 | 53 | 4 | 0.0 | 0.0 | 0.11 | 0.11 | 0.11 | 91 | 1010.1 |
| 20260509160128 | 54 | 4 | 0.0 | 0.0 | 0.10 | 0.10 | 0.10 | 90 | 1010.3 |
| 20260509155526 | 54 | 4 | 0.0 | 1.0 | 0.09 | 0.09 | 0.09 | 89 | 1010.5 |
| 20260509155026 | 54 | 251 | 0.0 | 1.0 | 0.07 | 0.07 | 0.07 | 88 | 1010.6 |
| 20260509154526 | 55 | 185 | 0.0 | 1.0 | 0.05 | 0.05 | 0.05 | 86 | 1010.8 |
| 20260509154024 | 55 | 139 | 0.0 | 1.0 | 0.04 | 0.04 | 0.04 | 85 | 1010.7 |
| 20260509153526 | 55 | 139 | 0.0 | 1.0 | 0.03 | 0.03 | 0.03 | 84 | 1010.6 |
| 20260509153023 | 55 | 139 | 0.0 | 2.0 | 0.02 | 0.02 | 0.02 | 82 | 1010.6 |
| 20260509152522 | 55 | 160 | 0.0 | 2.0 | 0.02 | 0.02 | 0.02 | 81 | 1010.7 |
| 20260509152022 | 56 | 175 | 0.0 | 1.0 | 0.01 | 0.01 | 0.01 | 83 | 1010.8 |
| 20260509151521 | 56 | 238 | 0.0 | 1.0 | 0.01 | 0.01 | 0.01 | 81 | 1010.8 |
| 20260509151020 | 56 | 234 | 0.0 | 1.0 | 0.01 | 0.01 | 0.01 | 80 | 1010.9 |
| 20260509150519 | 57 | 225 | 0.0 | 1.0 | 0.00 | 0.00 | 0.00 | 80 | 1010.8 |
| 20260509150018 | 57 | 192 | 0.0 | 1.0 | 0.00 | 0.00 | 0.00 | 79 | 1010.8 |
| 20260509145518 | 57 | 191 | 0.0 | 1.0 | 0.00 | 0.00 | 0.00 | 78 | 1010.7 |
| 20260509145017 | 57 | 158 | 0.0 | 3.0 | 0.00 | 0.00 | 0.00 | 77 | 1010.7 |
| 20260509144518 | 57 | 181 | 0.0 | 3.0 | 0.00 | 0.00 | 0.00 | 77 | 1010.8 |
| 20260509144014 | 57 | 177 | 0.0 | 3.0 | 0.00 | 0.00 | 0.00 | 76 | 1010.8 |
| 20260509143515 | 57 | 221 | 0.0 | 2.0 | 0.00 | 0.00 | 0.00 | 77 | 1010.7 |
| 20260509143011 | 57 | 207 | 0.0 | 2.0 | 0.00 | 0.00 | 0.00 | 77 | 1010.6 |
| 20260509142510 | 57 | 191 | 0.0 | 2.0 | 0.00 | 0.00 | 0.00 | 77 | 1010.5 |
| 20260509142011 | 57 | 241 | 0.0 | 1.0 | 0.00 | 0.00 | 0.00 | 79 | 1010.3 |
| 20260509141519 | 57 | 116 | 0.0 | 1.0 | 0.00 | 0.00 | 0.00 | 79 | 1010.3 |
| 20260509141008 | 57 | 184 | 0.0 | 1.0 | 0.00 | 0.00 | 0.00 | 79 | 1010.3 |
| 20260509140507 | 56 | 169 | 0.0 | 2.0 | 0.00 | 0.00 | 0.00 | 78 | 1010.3 |
| 20260509140008 | 56 | 212 | 0.0 | 2.0 | 0.00 | 0.00 | 0.00 | 78 | 1010.2 |
| 20260509135508 | 56 | 165 | 0.0 | 1.0 | 0.00 | 0.00 | 0.00 | 77 | 1010.2 |
| 20260509135007 | 56 | 158 | 0.0 | 1.0 | 0.00 | 0.00 | 0.00 | 79 | 1010.0 |
| 20260509134506 | 56 | 221 | 0.0 | 1.0 | 0.00 | 0.00 | 0.00 | 79 | 1010.0 |
| 20260509134007 | 56 | 134 | 0.0 | 1.0 | 0.00 | 0.00 | 0.00 | 77 | 1009.7 |
| 20260509133504 | 56 | 117 | 0.0 | 1.0 | 0.00 | 0.00 | 0.00 | 78 | 1009.8 |
| 20260509133003 | 56 | 132 | 0.0 | 1.0 | 0.00 | 0.00 | 0.00 | 77 | 1009.9 |
| 20260509132502 | 56 | 132 | 0.0 | 2.0 | 0.00 | 0.00 | 0.00 | 77 | 1010.0 |
| 20260509132002 | 56 | 255 | 0.0 | 2.0 | 0.00 | 0.00 | 0.00 | 77 | 1010.0 |
| 20260509131603 | 56 | 134 | 0.0 | 1.0 | 0.00 | 0.00 | 0.00 | 77 | 1010.0 |
| 20260509131100 | 56 | 150 | 0.0 | 2.0 | 0.00 | 0.00 | 0.00 | 76 | 1010.1 |
| 20260509130600 | 56 | 137 | 0.0 | 2.0 | 0.00 | 0.00 | 0.00 | 76 | 1010.1 |
| 20260509130107 | 56 | 203 | 0.0 | 3.0 | 0.00 | 0.00 | 0.00 | 75 | 1010.1 |
| 20260509125559 | 56 | 153 | 0.0 | 3.0 | 0.00 | 0.00 | 0.00 | 75 | 1010.1 |
| 20260509125058 | 56 | 149 | 0.0 | 1.0 | 0.00 | 0.00 | 0.00 | 75 | 1010.1 |
| 20260509124612 | 56 | 103 | 0.0 | 2.0 | 0.00 | 0.00 | 0.00 | 74 | 1010.1 |
| 20260509124056 | 56 | 118 | 0.0 | 2.0 | 0.00 | 0.00 | 0.00 | 75 | 1010.1 |
| 20260509123556 | 56 | 165 | 0.0 | 2.0 | 0.00 | 0.00 | 0.00 | 75 | 1010.0 |
| 20260509123100 | 56 | 146 | 0.0 | 3.0 | 0.00 | 0.00 | 0.00 | 75 | 1009.9 |
| 20260509122553 | 56 | 161 | 0.0 | 2.0 | 0.00 | 0.00 | 0.00 | 75 | 1010.0 |
| 20260509122052 | 56 | 139 | 0.0 | 2.0 | 0.00 | 0.00 | 0.00 | 76 | 1009.7 |
| 20260509121552 | 55 | 131 | 0.0 | 4.0 | 0.00 | 0.00 | 0.00 | 77 | 1009.7 |
| 20260509121049 | 55 | 160 | 0.0 | 4.0 | 0.00 | 0.00 | 0.00 | 77 | 1009.8 |
| 20260509120550 | 55 | 124 | 0.0 | 6.0 | 0.00 | 0.00 | 0.00 | 78 | 1009.8 |
| 20260509120055 | 55 | 109 | 2.0 | 6.0 | 0.00 | 0.00 | 0.00 | 78 | 1009.8 |
| 20260509115546 | 55 | 125 | 1.0 | 3.0 | 0.00 | 0.00 | 0.00 | 79 | 1009.8 |
| 20260509115046 | 55 | 125 | 0.0 | 1.0 | 0.00 | 0.00 | 0.00 | 80 | 1010.1 |
| 20260509114546 | 54 | 122 | 0.0 | 1.0 | 0.00 | 0.00 | 0.00 | 80 | 1010.0 |
| 20260509114045 | 54 | 129 | 0.0 | 1.0 | 0.00 | 0.00 | 0.00 | 80 | 1009.9 |
| 20260509113548 | 54 | 98 | 0.0 | 1.0 | 0.00 | 0.00 | 0.00 | 82 | 1009.9 |
| 20260509113044 | 54 | 105 | 0.0 | 2.0 | 0.00 | 0.00 | 0.00 | 82 | 1009.9 |
| 20260509112542 | 54 | 84 | 0.0 | 2.0 | 0.00 | 0.00 | 0.00 | 80 | 1009.7 |
| 20260509112042 | 54 | 139 | 0.0 | 2.0 | 0.00 | 0.00 | 0.00 | 81 | 1009.8 |
| 20260509111541 | 54 | 99 | 0.0 | 1.0 | 0.00 | 0.00 | 0.00 | 82 | 1009.9 |
| 20260509111041 | 53 | 97 | 0.0 | 1.0 | 0.00 | 0.00 | 0.00 | 83 | 1009.9 |
| 20260509110542 | 53 | 97 | 0.0 | 0.0 | 0.00 | 0.00 | 0.00 | 82 | 1009.7 |
| 20260509110040 | 53 | 155 | 0.0 | 1.0 | 0.00 | 0.00 | 0.00 | 83 | 1009.8 |
| 20260509105539 | 52 | 155 | 0.0 | 1.0 | 0.00 | 0.00 | 0.00 | 84 | 1009.7 |
| 20260509105038 | 52 | 58 | 0.0 | 1.0 | 0.00 | 0.00 | 0.00 | 86 | 1009.6 |
| 20260509104538 | 52 | 107 | 0.0 | 1.0 | 0.00 | 0.00 | 0.00 | 85 | 1009.5 |
| 20260509104036 | 52 | 72 | 0.0 | 1.0 | 0.00 | 0.00 | 0.00 | 85 | 1009.5 |
| 20260509103540 | 52 | 113 | 0.0 | 2.0 | 0.00 | 0.00 | 0.00 | 85 | 1009.8 |
| 20260509103035 | 52 | 134 | 0.0 | 1.0 | 0.00 | 0.00 | 0.00 | 85 | 1009.6 |
| 20260509102534 | 52 | 81 | 0.0 | 2.0 | 0.00 | 0.00 | 0.00 | 85 | 1009.5 |
| 20260509102033 | 52 | 81 | 1.0 | 2.0 | 0.00 | 0.00 | 0.00 | 85 | 1009.3 |
| 20260509101533 | 51 | 37 | 0.0 | 3.0 | 0.00 | 0.00 | 0.00 | 87 | 1009.2 |
| 20260509101031 | 51 | 78 | 2.0 | 3.0 | 0.00 | 0.00 | 0.00 | 87 | 1009.3 |
| 20260509100530 | 52 | 97 | 1.0 | 2.0 | 0.00 | 0.00 | 0.00 | 86 | 1009.3 |
| 20260509100041 | 52 | 266 | 0.0 | 1.0 | 0.00 | 0.00 | 0.00 | 85 | 1009.3 |
| 20260509095529 | 52 | 264 | 0.0 | 1.0 | 0.00 | 0.00 | 0.00 | 85 | 1009.4 |
| 20260509095028 | 52 | 71 | 0.0 | 1.0 | 0.00 | 0.00 | 0.00 | 84 | 1009.3 |
| 20260509094533 | 52 | 71 | 0.0 | 1.0 | 0.00 | 0.00 | 0.00 | 84 | 1009.3 |
| 20260509094027 | 52 | 98 | 0.0 | 1.0 | 0.00 | 0.00 | 0.00 | 84 | 1009.4 |
| 20260509093526 | 52 | 98 | 0.0 | 1.0 | 0.00 | 0.00 | 0.00 | 85 | 1009.4 |
| 20260509093028 | 52 | 98 | 0.0 | 1.0 | 0.00 | 0.00 | 0.00 | 85 | 1009.4 |
| 20260509092524 | 52 | 102 | 0.0 | 2.0 | 0.00 | 0.00 | 0.00 | 86 | 1009.5 |
| 20260509092024 | 52 | 94 | 0.0 | 1.0 | 0.00 | 0.00 | 0.00 | 86 | 1009.3 |
| 20260509091522 | 51 | 70 | 0.0 | 1.0 | 0.00 | 0.00 | 0.00 | 87 | 1009.5 |
| 20260509091023 | 51 | 70 | 0.0 | 1.0 | 0.00 | 0.00 | 0.00 | 87 | 1009.6 |
| 20260509090522 | 51 | 357 | 0.0 | 0.0 | 0.00 | 0.00 | 0.00 | 88 | 1009.6 |
| 20260509090020 | 51 | 357 | 0.0 | 0.0 | 0.00 | 0.00 | 0.00 | 87 | 1009.7 |
| 20260509085518 | 50 | 357 | 0.0 | 0.0 | 0.00 | 0.00 | 0.00 | 87 | 1009.6 |
| 20260509085022 | 50 | 357 | 0.0 | 0.0 | 0.00 | 0.00 | 0.00 | 87 | 1009.7 |
| 20260509084518 | 50 | 357 | 0.0 | 0.0 | 0.00 | 0.00 | 0.00 | 87 | 1009.7 |
| 20260509084017 | 50 | 357 | 0.0 | 0.0 | 0.00 | 0.00 | 0.00 | 87 | 1009.7 |
| 20260509083516 | 50 | 357 | 0.0 | 0.0 | 0.00 | 0.00 | 0.00 | 86 | 1009.8 |
| 20260509083018 | 50 | 357 | 0.0 | 0.0 | 0.00 | 0.00 | 0.00 | 86 | 1009.9 |
| 20260509082518 | 50 | 357 | 0.0 | 0.0 | 0.00 | 0.00 | 0.00 | 87 | 1009.8 |
| 20260509082013 | 49 | 357 | 0.0 | 0.0 | 0.00 | 0.00 | 0.00 | 87 | 1009.9 |
| 20260509081519 | 49 | 357 | 0.0 | 1.0 | 0.00 | 0.00 | 0.00 | 87 | 1010.1 |
| 20260509081011 | 49 | 117 | 0.0 | 1.0 | 0.00 | 0.00 | 0.00 | 86 | 1010.0 |
| 20260509080511 | 49 | 77 | 0.0 | 1.0 | 0.00 | 0.00 | 0.00 | 86 | 1010.0 |
| 20260509080009 | 49 | 11 | 0.0 | 0.0 | 0.00 | 0.00 | 0.00 | 86 | 1009.9 |
| 20260509075512 | 49 | 11 | 0.0 | 0.0 | 0.00 | 0.00 | 0.00 | 86 | 1010.0 |
| 20260509075009 | 48 | 333 | 0.0 | 0.0 | 0.00 | 0.00 | 0.00 | 86 | 1010.1 |
| 20260509074507 | 48 | 333 | 0.0 | 0.0 | 0.00 | 0.00 | 0.00 | 86 | 1010.2 |
| 20260509074005 | 48 | 312 | 0.0 | 0.0 | 0.00 | 0.00 | 0.00 | 85 | 1010.1 |
| 20260509073504 | 48 | 296 | 0.0 | 0.0 | 0.00 | 0.00 | 0.00 | 84 | 1010.2 |
| 20260509073006 | 48 | 296 | 0.0 | 0.0 | 0.00 | 0.00 | 0.00 | 84 | 1010.2 |
| 20260509072502 | 48 | 296 | 0.0 | 0.0 | 0.00 | 0.00 | 0.00 | 84 | 1010.3 |
| 20260509072100 | 48 | 296 | 0.0 | 0.0 | 0.00 | 0.00 | 0.00 | 83 | 1010.4 |
| 20260509071610 | 49 | 296 | 0.0 | 0.0 | 0.00 | 0.00 | 0.00 | 82 | 1010.3 |
| 20260509071102 | 49 | 296 | 0.0 | 0.0 | 0.00 | 0.00 | 0.00 | 81 | 1010.3 |
| 20260509070558 | 50 | 296 | 0.0 | 0.0 | 0.00 | 0.00 | 0.00 | 81 | 1010.2 |
| 20260509070056 | 50 | 296 | 0.0 | 0.0 | 0.00 | 0.00 | 0.00 | 81 | 1010.2 |
| 20260509065552 | 50 | 296 | 0.0 | 0.0 | 0.00 | 0.00 | 0.00 | 80 | 1010.3 |
| 20260509065051 | 51 | 341 | 0.0 | 0.0 | 0.00 | 0.00 | 0.00 | 79 | 1010.2 |
| 20260509064553 | 51 | 42 | 0.0 | 1.0 | 0.00 | 0.00 | 0.00 | 78 | 1010.2 |
| 20260509064050 | 52 | 68 | 0.0 | 1.0 | 0.00 | 0.00 | 0.00 | 76 | 1010.2 |
| 20260509063549 | 52 | 61 | 0.0 | 1.0 | 0.00 | 0.00 | 0.00 | 76 | 1010.3 |
| 20260509063149 | 52 | 61 | 0.0 | 1.0 | 0.00 | 0.00 | 0.00 | 76 | 1010.4 |
| 20260509062547 | 52 | 61 | 0.0 | 1.0 | 0.00 | 0.00 | 0.00 | 76 | 1010.3 |
| 20260509062047 | 53 | 61 | 0.0 | 4.0 | 0.00 | 0.00 | 0.00 | 75 | 1010.2 |
| 20260509061550 | 52 | 50 | 2.0 | 4.0 | 0.00 | 0.00 | 0.00 | 75 | 1010.1 |
| 20260509061043 | 52 | 296 | 0.0 | 0.0 | 0.00 | 0.00 | 0.00 | 75 | 1010.3 |
| 20260509060543 | 52 | 296 | 0.0 | 3.0 | 0.00 | 0.00 | 0.00 | 75 | 1010.4 |
| 20260509060052 | 52 | 60 | 0.0 | 3.0 | 0.00 | 0.00 | 0.00 | 74 | 1010.4 |
| 20260509055541 | 52 | 84 | 0.0 | 1.0 | 0.00 | 0.00 | 0.00 | 75 | 1010.6 |
| 20260509055039 | 52 | 60 | 0.0 | 1.0 | 0.00 | 0.00 | 0.00 | 75 | 1010.6 |
| 20260509054548 | 51 | 89 | 0.0 | 1.0 | 0.00 | 0.00 | 0.00 | 77 | 1010.8 |
| 20260509054039 | 52 | 40 | 0.0 | 1.0 | 0.00 | 0.00 | 0.00 | 77 | 1010.7 |
| 20260509053536 | 52 | 40 | 0.0 | 1.0 | 0.00 | 0.00 | 0.00 | 76 | 1010.9 |
| 20260509053036 | 52 | 349 | 0.0 | 0.0 | 0.00 | 0.00 | 0.00 | 75 | 1011.0 |
| 20260509052534 | 52 | 349 | 0.0 | 1.0 | 0.00 | 0.00 | 0.00 | 74 | 1011.1 |
| 20260509052033 | 52 | 17 | 0.0 | 1.0 | 0.00 | 0.00 | 0.00 | 74 | 1011.1 |
| 20260509051534 | 53 | 62 | 0.0 | 2.0 | 0.00 | 0.00 | 0.00 | 73 | 1011.0 |
| 20260509051031 | 52 | 59 | 0.0 | 2.0 | 0.00 | 0.00 | 0.00 | 73 | 1011.0 |
| 20260509050531 | 51 | 63 | 0.0 | 2.0 | 0.00 | 0.00 | 0.00 | 76 | 1011.0 |
| 20260509050037 | 51 | 59 | 0.0 | 0.0 | 0.00 | 0.00 | 0.00 | 78 | 1011.0 |
| 20260509045531 | 51 | 59 | 0.0 | 0.0 | 0.00 | 0.00 | 0.00 | 80 | 1011.1 |
| 20260509045027 | 50 | 59 | 0.0 | 0.0 | 0.00 | 0.00 | 0.00 | 81 | 1011.0 |
| 20260509044540 | 51 | 59 | 0.0 | 0.0 | 0.00 | 0.00 | 0.00 | 79 | 1011.1 |
| 20260509044023 | 52 | 49 | 0.0 | 0.0 | 0.00 | 0.00 | 0.00 | 78 | 1011.1 |
| 20260509043522 | 52 | 349 | 0.0 | 0.0 | 0.00 | 0.00 | 0.00 | 77 | 1011.2 |
| 20260509043021 | 52 | 349 | 0.0 | 1.0 | 0.00 | 0.00 | 0.00 | 76 | 1011.2 |
| 20260509042520 | 53 | 349 | 0.0 | 1.0 | 0.00 | 0.00 | 0.00 | 76 | 1011.2 |
| 20260509042018 | 53 | 349 | 0.0 | 1.0 | 0.00 | 0.00 | 0.00 | 76 | 1011.1 |
| 20260509041516 | 53 | 101 | 0.0 | 1.0 | 0.00 | 0.00 | 0.00 | 76 | 1011.2 |
| 20260509041014 | 53 | 101 | 0.0 | 1.0 | 0.00 | 0.00 | 0.00 | 75 | 1011.2 |
| 20260509040513 | 54 | 41 | 0.0 | 1.0 | 0.00 | 0.00 | 0.00 | 75 | 1011.1 |
| 20260509040015 | 54 | 41 | 0.0 | 1.0 | 0.00 | 0.00 | 0.00 | 75 | 1011.2 |
| 20260509035512 | 55 | 54 | 0.0 | 1.0 | 0.00 | 0.00 | 0.00 | 73 | 1011.2 |
| 20260509035011 | 55 | 52 | 0.0 | 1.0 | 0.00 | 0.00 | 0.00 | 71 | 1011.5 |
| 20260509034513 | 55 | 51 | 0.0 | 4.0 | 0.00 | 0.00 | 0.00 | 69 | 1011.5 |
| 20260509034010 | 55 | 37 | 1.0 | 6.0 | 0.00 | 0.00 | 0.00 | 69 | 1011.2 |
| 20260509033509 | 55 | 32 | 1.0 | 6.0 | 0.00 | 0.00 | 0.00 | 69 | 1011.2 |
| 20260509033008 | 55 | 331 | 1.0 | 2.0 | 0.00 | 0.00 | 0.00 | 71 | 1011.3 |
| 20260509032507 | 55 | 130 | 0.0 | 1.0 | 0.00 | 0.00 | 0.00 | 70 | 1011.4 |